GXA662 MTCH-KBOS

Flight info

Callsign GXA662
Flight time N/A
Altitude 36000
Route NOSOX1N NOSOX DCT BODLO Y298 RUMFO Y374 NUCAR DCT KR84W DCT CANIT DCT MEIGS/N0458F370 DCT JENKS DCT SEELO DCT AAARG DCT KEEKS AR3 GARIC DCT RREGG Q117 SAWED DCT KALDA Q439 AVCAT DCT ROBUC ROBUC3
Aircraft A320/M-SDE3FGHIRWY/LB1

Departure

Time 2026-05-01 12:10
Airport Cap Haitien International Airport (MTCH)

Arrival

Time N/A
Airport Boston Logan International Airport (KBOS)
Time Latitude Longitude Altitude Speed Heading
2026-05-01 11:44 19.73584 -72.19466 22 ft 0 kts 309°
2026-05-01 12:00 19.73574 -72.19453 25 ft 0 kts 310°
2026-05-01 12:01 19.73570 -72.19439 23 ft 0 kts 214°
2026-05-01 12:04 19.73569 -72.19439 23 ft 1 kts 214°
2026-05-01 12:04 19.73541 -72.19462 22 ft 6 kts 218°
2026-05-01 12:04 19.73506 -72.19491 21 ft 9 kts 219°
2026-05-01 12:04 19.73451 -72.19503 21 ft 8 kts 174°
2026-05-01 12:05 19.73390 -72.19496 21 ft 9 kts 174°
2026-05-01 12:05 19.73246 -72.19503 17 ft 11 kts 216°
2026-05-01 12:05 19.73186 -72.19556 18 ft 11 kts 219°
2026-05-01 12:06 19.73127 -72.19607 17 ft 10 kts 219°
2026-05-01 12:06 19.73077 -72.19649 17 ft 8 kts 219°
2026-05-01 12:06 19.73022 -72.19697 18 ft 12 kts 219°
2026-05-01 12:06 19.72963 -72.19748 18 ft 10 kts 219°
2026-05-01 12:07 19.72904 -72.19799 18 ft 15 kts 220°
2026-05-01 12:07 19.72811 -72.19881 19 ft 20 kts 219°
2026-05-01 12:07 19.72698 -72.19978 19 ft 22 kts 219°
2026-05-01 12:07 19.72576 -72.20083 17 ft 24 kts 218°
2026-05-01 12:08 19.72445 -72.20196 16 ft 25 kts 219°
2026-05-01 12:08 19.72364 -72.20266 15 ft 22 kts 219°
2026-05-01 12:08 19.72245 -72.20370 16 ft 22 kts 219°
2026-05-01 12:08 19.72123 -72.20476 16 ft 23 kts 219°
2026-05-01 12:09 19.72002 -72.20580 18 ft 22 kts 219°
2026-05-01 12:09 19.71884 -72.20683 18 ft 17 kts 219°
2026-05-01 12:09 19.71814 -72.20726 18 ft 4 kts 259°
2026-05-01 12:09 19.71828 -72.20730 18 ft 2 kts 14°
2026-05-01 12:10 19.71965 -72.20611 18 ft 61 kts 39°
2026-05-01 12:10 19.73271 -72.19473 90 ft 164 kts 44°
2026-05-01 12:10 19.74085 -72.18725 709 ft 155 kts 40°
2026-05-01 12:11 19.75793 -72.17253 1865 ft 162 kts 40°
2026-05-01 12:11 19.76728 -72.16448 2153 ft 184 kts 40°
2026-05-01 12:11 19.77784 -72.15539 2426 ft 207 kts 40°
2026-05-01 12:12 19.79025 -72.14631 2722 ft 228 kts 22°
2026-05-01 12:12 19.80608 -72.14378 3376 ft 235 kts 354°
2026-05-01 12:12 19.82142 -72.14951 4148 ft 237 kts 325°
2026-05-01 12:12 19.83234 -72.16250 4943 ft 240 kts 296°
2026-05-01 12:13 19.83884 -72.17892 5711 ft 242 kts 292°
2026-05-01 12:13 19.84511 -72.19564 6442 ft 245 kts 292°
2026-05-01 12:13 19.85146 -72.21258 7127 ft 248 kts 292°
2026-05-01 12:13 19.85792 -72.22970 7827 ft 251 kts 292°
2026-05-01 12:14 19.86523 -72.24665 8506 ft 256 kts 301°
2026-05-01 12:14 19.87510 -72.26343 8797 ft 279 kts 302°
2026-05-01 12:14 19.88583 -72.28122 9315 ft 290 kts 302°
2026-05-01 12:14 19.89686 -72.29941 10013 ft 295 kts 302°
2026-05-01 12:15 19.90818 -72.31811 10437 ft 310 kts 302°
2026-05-01 12:15 19.92027 -72.33812 10602 ft 333 kts 302°
2026-05-01 12:15 19.93320 -72.35955 10737 ft 355 kts 302°
2026-05-01 12:15 19.94689 -72.38226 10952 ft 372 kts 302°
2026-05-01 12:16 19.96094 -72.40565 11468 ft 378 kts 302°
2026-05-01 12:16 19.97516 -72.42937 12054 ft 382 kts 302°
2026-05-01 12:16 19.98931 -72.45297 12644 ft 385 kts 302°
2026-05-01 12:16 20.00377 -72.47707 13233 ft 388 kts 302°
2026-05-01 12:17 20.01834 -72.50135 13851 ft 390 kts 302°
2026-05-01 12:17 20.03297 -72.52573 14377 ft 393 kts 302°
2026-05-01 12:17 20.04776 -72.55041 14894 ft 396 kts 302°
2026-05-01 12:17 20.06258 -72.57518 15462 ft 398 kts 302°
2026-05-01 12:18 20.07748 -72.60007 15984 ft 401 kts 302°
2026-05-01 12:18 20.09250 -72.62512 16511 ft 403 kts 303°
2026-05-01 12:18 20.10868 -72.64958 17047 ft 405 kts 310°
2026-05-01 12:18 20.12740 -72.67220 17578 ft 408 kts 312°
2026-05-01 12:19 20.14629 -72.69481 18097 ft 411 kts 312°
2026-05-01 12:19 20.16535 -72.71767 18552 ft 413 kts 312°
2026-05-01 12:19 20.18451 -72.74069 18961 ft 416 kts 312°
2026-05-01 12:19 20.20352 -72.76359 19350 ft 420 kts 312°
2026-05-01 12:20 20.22291 -72.78699 19722 ft 423 kts 312°
2026-05-01 12:20 20.24249 -72.81052 20089 ft 426 kts 312°
2026-05-01 12:20 20.26227 -72.83428 20446 ft 429 kts 312°
2026-05-01 12:20 20.28213 -72.85820 20795 ft 432 kts 313°
2026-05-01 12:21 20.30208 -72.88228 21143 ft 435 kts 313°
2026-05-01 12:21 20.32220 -72.90655 21462 ft 438 kts 313°
2026-05-01 12:21 20.34247 -72.93093 21784 ft 441 kts 313°
2026-05-01 12:21 20.36289 -72.95552 22088 ft 444 kts 313°
2026-05-01 12:22 20.38341 -72.98031 22383 ft 447 kts 313°
2026-05-01 12:22 20.40384 -73.00500 22666 ft 450 kts 313°
2026-05-01 12:22 20.42464 -73.03011 22948 ft 453 kts 313°
2026-05-01 12:22 20.44564 -73.05535 23219 ft 455 kts 313°
2026-05-01 12:23 20.46676 -73.08061 23483 ft 458 kts 313°
2026-05-01 12:23 20.48804 -73.10601 23714 ft 460 kts 313°
2026-05-01 12:23 20.50935 -73.13154 23942 ft 462 kts 313°
2026-05-01 12:23 20.53074 -73.15724 24184 ft 463 kts 313°
2026-05-01 12:24 20.55210 -73.18298 24417 ft 464 kts 313°
2026-05-01 12:24 20.57358 -73.20885 24658 ft 465 kts 313°
2026-05-01 12:24 20.59486 -73.23449 24894 ft 467 kts 313°
2026-05-01 12:24 20.61648 -73.26054 25128 ft 468 kts 313°
2026-05-01 12:25 20.63810 -73.28658 25354 ft 469 kts 313°
2026-05-01 12:25 20.68148 -73.33882 25795 ft 471 kts 313°
2026-05-01 12:25 20.70302 -73.36479 26010 ft 472 kts 313°
2026-05-01 12:26 20.72482 -73.39107 26219 ft 473 kts 313°
2026-05-01 12:26 20.76865 -73.44400 26620 ft 476 kts 313°
2026-05-01 12:26 20.79058 -73.47053 26818 ft 477 kts 313°
2026-05-01 12:27 20.81256 -73.49714 27008 ft 477 kts 313°
2026-05-01 12:27 20.85641 -73.55017 27558 ft 475 kts 313°
2026-05-01 12:28 20.89986 -73.60274 28128 ft 473 kts 313°
2026-05-01 12:28 20.92159 -73.62912 28420 ft 472 kts 313°
2026-05-01 12:28 20.96702 -73.67932 29026 ft 467 kts 323°
2026-05-01 12:29 20.99383 -73.69872 29327 ft 465 kts 330°
2026-05-01 12:29 21.02140 -73.71669 29663 ft 463 kts 329°
2026-05-01 12:29 21.07619 -73.75261 30319 ft 460 kts 329°
2026-05-01 12:30 21.13057 -73.78836 30875 ft 457 kts 329°
2026-05-01 12:30 21.15770 -73.80617 31151 ft 456 kts 329°
2026-05-01 12:30 21.18477 -73.82386 31432 ft 455 kts 329°
2026-05-01 12:31 21.21179 -73.84150 31716 ft 455 kts 329°
2026-05-01 12:31 21.23873 -73.85917 31992 ft 454 kts 329°
2026-05-01 12:31 21.26559 -73.87685 32278 ft 453 kts 329°
2026-05-01 12:31 21.29240 -73.89448 32565 ft 452 kts 329°
2026-05-01 12:32 21.31920 -73.91212 32844 ft 451 kts 329°
2026-05-01 12:32 21.37253 -73.94718 33431 ft 448 kts 329°
2026-05-01 12:32 21.39875 -73.96446 33711 ft 447 kts 329°
2026-05-01 12:33 21.42524 -73.98193 34001 ft 446 kts 329°
2026-05-01 12:33 21.45171 -73.99939 34251 ft 445 kts 329°
2026-05-01 12:33 21.47807 -74.01679 34487 ft 445 kts 329°
2026-05-01 12:33 21.50445 -74.03422 34697 ft 445 kts 329°
2026-05-01 12:34 21.53079 -74.05162 34931 ft 444 kts 329°
2026-05-01 12:34 21.55709 -74.06896 35154 ft 444 kts 329°
2026-05-01 12:34 21.58339 -74.08631 35369 ft 443 kts 329°
2026-05-01 12:34 21.60962 -74.10362 35581 ft 442 kts 329°
2026-05-01 12:35 21.63583 -74.12096 35781 ft 442 kts 329°
2026-05-01 12:35 21.66198 -74.13826 35961 ft 442 kts 329°
2026-05-01 12:35 21.71461 -74.17297 36024 ft 445 kts 329°
2026-05-01 12:36 21.76741 -74.20801 36027 ft 446 kts 329°
2026-05-01 12:36 21.82022 -74.24308 36027 ft 446 kts 329°
2026-05-01 12:37 21.87313 -74.27807 36022 ft 446 kts 329°
2026-05-01 12:37 21.92562 -74.31291 36029 ft 447 kts 329°
2026-05-01 12:38 21.97849 -74.34803 36032 ft 447 kts 329°
2026-05-01 12:38 22.03141 -74.38329 36039 ft 447 kts 328°
2026-05-01 12:39 22.08422 -74.41851 36046 ft 446 kts 329°
2026-05-01 12:39 22.13709 -74.45371 36046 ft 446 kts 329°
2026-05-01 12:40 22.18980 -74.48889 36043 ft 445 kts 329°
2026-05-01 12:40 22.24246 -74.52402 36042 ft 445 kts 329°
2026-05-01 12:41 22.29511 -74.55921 36041 ft 445 kts 329°
2026-05-01 12:41 22.34773 -74.59436 36044 ft 445 kts 329°
2026-05-01 12:42 22.40036 -74.62948 36047 ft 444 kts 328°
2026-05-01 12:42 22.45296 -74.66473 36045 ft 444 kts 328°
2026-05-01 12:43 22.50540 -74.70004 36047 ft 444 kts 328°
2026-05-01 12:43 22.55784 -74.73522 36046 ft 444 kts 328°
2026-05-01 12:44 22.60994 -74.77020 36044 ft 443 kts 328°
2026-05-01 12:45 22.71482 -74.84073 36049 ft 443 kts 328°
2026-05-01 12:45 22.76721 -74.87595 36048 ft 443 kts 328°
2026-05-01 12:46 22.81951 -74.91122 36047 ft 443 kts 328°
2026-05-01 12:46 22.87178 -74.94654 36045 ft 442 kts 328°
2026-05-01 12:47 22.92405 -74.98189 36050 ft 442 kts 328°
2026-05-01 12:47 22.97632 -75.01725 36047 ft 442 kts 328°
2026-05-01 12:48 23.02828 -75.05240 36047 ft 442 kts 328°
2026-05-01 12:48 23.08054 -75.08779 36050 ft 442 kts 328°
2026-05-01 12:49 23.13619 -75.11639 36049 ft 443 kts 335°
2026-05-01 12:49 23.19266 -75.14356 36047 ft 443 kts 335°
2026-05-01 12:50 23.24907 -75.17071 36045 ft 443 kts 335°
2026-05-01 12:50 23.30539 -75.19801 36046 ft 443 kts 335°
2026-05-01 12:51 23.36179 -75.22535 36055 ft 443 kts 334°
2026-05-01 12:52 23.44599 -75.26609 36048 ft 443 kts 334°
2026-05-01 12:52 23.53045 -75.30709 36048 ft 443 kts 334°
2026-05-01 12:53 23.61494 -75.34805 36047 ft 443 kts 334°
2026-05-01 12:54 23.67132 -75.37542 36046 ft 443 kts 334°
2026-05-01 12:54 23.75571 -75.41653 36051 ft 443 kts 334°
2026-05-01 12:55 23.84019 -75.45775 36044 ft 443 kts 334°
2026-05-01 12:56 23.89617 -75.48509 36041 ft 444 kts 334°
2026-05-01 12:56 23.94344 -75.50819 36041 ft 444 kts 334°
2026-05-01 12:57 23.99980 -75.53577 36042 ft 444 kts 334°
2026-05-01 12:57 24.08403 -75.57699 36044 ft 444 kts 334°
2026-05-01 12:58 24.14042 -75.60468 36044 ft 444 kts 334°
2026-05-01 12:59 24.22504 -75.64623 36046 ft 444 kts 334°
2026-05-01 12:59 24.30965 -75.68778 36046 ft 444 kts 334°
2026-05-01 13:00 24.39421 -75.72946 36057 ft 444 kts 333°
2026-05-01 13:01 24.47850 -75.77091 36056 ft 444 kts 333°
2026-05-01 13:02 24.56294 -75.81272 36052 ft 444 kts 333°
2026-05-01 13:07 25.18235 -76.12042 36050 ft 443 kts 332°
2026-05-01 13:08 25.23831 -76.14837 36044 ft 444 kts 332°
2026-05-01 13:08 25.29452 -76.17655 36065 ft 444 kts 332°
2026-05-01 13:09 25.35077 -76.20473 36056 ft 444 kts 332°
2026-05-01 13:09 25.40708 -76.23299 36050 ft 443 kts 331°
2026-05-01 13:10 25.46330 -76.26121 36050 ft 443 kts 332°
2026-05-01 13:10 25.51916 -76.28919 36043 ft 444 kts 332°
2026-05-01 13:11 25.57539 -76.31743 36050 ft 444 kts 331°
2026-05-01 13:11 25.63160 -76.34582 36054 ft 444 kts 331°
2026-05-01 13:12 25.68780 -76.37415 36056 ft 443 kts 331°
2026-05-01 13:12 25.74393 -76.40240 36047 ft 443 kts 331°
2026-05-01 13:13 25.80000 -76.43075 36043 ft 442 kts 331°
2026-05-01 13:13 25.85602 -76.45914 36041 ft 442 kts 331°
2026-05-01 13:14 25.91202 -76.48748 36040 ft 443 kts 331°
2026-05-01 13:14 25.96813 -76.51582 36051 ft 442 kts 331°
2026-05-01 13:15 26.02373 -76.54399 36048 ft 442 kts 330°
2026-05-01 13:15 26.07966 -76.57235 36047 ft 441 kts 331°
2026-05-01 13:16 26.13552 -76.60077 36044 ft 441 kts 330°
2026-05-01 13:16 26.19135 -76.62925 36043 ft 441 kts 330°
2026-05-01 13:17 26.30311 -76.68626 36052 ft 441 kts 330°
2026-05-01 13:18 26.38666 -76.72885 36045 ft 440 kts 330°
2026-05-01 13:18 26.44228 -76.75730 36043 ft 440 kts 330°
2026-05-01 13:19 26.49790 -76.78578 36040 ft 440 kts 330°
2026-05-01 13:20 26.58082 -76.82835 36052 ft 439 kts 330°
2026-05-01 13:20 26.63634 -76.85677 36041 ft 438 kts 330°
2026-05-01 13:21 26.71944 -76.89942 36036 ft 438 kts 331°
2026-05-01 13:21 26.77480 -76.92789 36032 ft 438 kts 331°
2026-05-01 13:22 26.83018 -76.95641 36034 ft 438 kts 331°
2026-05-01 13:22 26.88548 -76.98499 36032 ft 437 kts 331°
2026-05-01 13:23 26.94073 -77.01351 36037 ft 437 kts 331°
2026-05-01 13:23 26.99561 -77.04182 36027 ft 436 kts 331°
2026-05-01 13:24 27.05073 -77.07032 36013 ft 436 kts 331°
2026-05-01 13:25 27.13328 -77.11318 36004 ft 435 kts 331°
2026-05-01 13:25 27.18829 -77.14178 36000 ft 435 kts 331°
2026-05-01 13:26 27.24333 -77.17030 35997 ft 436 kts 331°
2026-05-01 13:26 27.29835 -77.19884 36000 ft 436 kts 331°
2026-05-01 13:27 27.35342 -77.22756 36003 ft 436 kts 331°
2026-05-01 13:27 27.43595 -77.27064 36003 ft 436 kts 332°
2026-05-01 13:28 27.51846 -77.31366 36030 ft 436 kts 332°
2026-05-01 13:29 27.62853 -77.37121 36007 ft 436 kts 332°
2026-05-01 13:31 27.79341 -77.45755 36004 ft 436 kts 332°
2026-05-01 13:32 27.93091 -77.52999 36002 ft 436 kts 332°
2026-05-01 13:33 28.06828 -77.60242 35991 ft 435 kts 332°
2026-05-01 13:34 28.17940 -77.65733 36005 ft 437 kts 336°
2026-05-01 13:35 28.26512 -77.69126 36000 ft 437 kts 337°
2026-05-01 13:36 28.35082 -77.72641 35993 ft 436 kts 336°
2026-05-01 13:36 28.43609 -77.76241 36009 ft 435 kts 335°
2026-05-01 13:37 28.48330 -77.78226 36007 ft 435 kts 336°
2026-05-01 13:37 28.54967 -77.81008 35999 ft 434 kts 336°
2026-05-01 13:38 28.63478 -77.84588 35994 ft 434 kts 335°
2026-05-01 13:39 28.69102 -77.86956 35994 ft 434 kts 335°
2026-05-01 13:39 28.74757 -77.89338 36001 ft 433 kts 335°
2026-05-01 13:40 28.80410 -77.91708 35998 ft 432 kts 335°
2026-05-01 13:40 28.86037 -77.94095 35996 ft 431 kts 335°
2026-05-01 13:41 28.91661 -77.96475 36007 ft 430 kts 335°
2026-05-01 13:41 28.97272 -77.98844 36001 ft 429 kts 335°
2026-05-01 13:42 29.02527 -78.01882 36018 ft 420 kts 322°
2026-05-01 13:42 29.07399 -78.05557 36008 ft 418 kts 322°
2026-05-01 13:43 29.12216 -78.09195 36004 ft 417 kts 322°
2026-05-01 13:43 29.17067 -78.12858 35996 ft 417 kts 322°
2026-05-01 13:44 29.21905 -78.16512 35994 ft 416 kts 322°
2026-05-01 13:44 29.26738 -78.20167 35991 ft 416 kts 322°
2026-05-01 13:45 29.30754 -78.23208 36002 ft 416 kts 322°
2026-05-01 13:45 29.35584 -78.26864 35998 ft 416 kts 322°
2026-05-01 13:46 29.40402 -78.30521 35991 ft 415 kts 322°
2026-05-01 13:46 29.45219 -78.34186 35987 ft 415 kts 322°
2026-05-01 13:47 29.50031 -78.37851 35983 ft 415 kts 322°
2026-05-01 13:47 29.54845 -78.41508 35979 ft 415 kts 323°
2026-05-01 13:48 29.60113 -78.44293 35977 ft 423 kts 333°
2026-05-01 13:48 29.65609 -78.46717 36000 ft 422 kts 333°
2026-05-01 13:49 29.71097 -78.49143 35992 ft 422 kts 333°
2026-05-01 13:49 29.76584 -78.51566 35988 ft 422 kts 333°
2026-05-01 13:50 29.82064 -78.53996 35987 ft 422 kts 333°
2026-05-01 13:50 29.87551 -78.56436 35987 ft 422 kts 333°
2026-05-01 13:51 29.93031 -78.58874 36010 ft 422 kts 332°
2026-05-01 13:51 29.98513 -78.61320 36000 ft 421 kts 332°
2026-05-01 13:52 30.03980 -78.63755 35993 ft 421 kts 332°
2026-05-01 13:52 30.09417 -78.66173 35988 ft 421 kts 332°
2026-05-01 13:53 30.14876 -78.68616 35992 ft 421 kts 332°
2026-05-01 13:53 30.20502 -78.70601 35993 ft 431 kts 345°
2026-05-01 13:53 30.23539 -78.70746 35993 ft 441 kts 354°
2026-05-01 13:54 30.29661 -78.70533 35988 ft 440 kts 353°
2026-05-01 13:54 30.35774 -78.70348 35982 ft 439 kts 353°
2026-05-01 13:55 30.41886 -78.70175 35979 ft 439 kts 353°
2026-05-01 13:55 30.48003 -78.70005 36005 ft 439 kts 353°
2026-05-01 13:56 30.54116 -78.69821 35996 ft 439 kts 353°
2026-05-01 13:56 30.60224 -78.69645 35995 ft 439 kts 353°
2026-05-01 13:57 30.66356 -78.68685 35987 ft 454 kts
2026-05-01 13:57 30.72425 -78.66780 35971 ft 455 kts
2026-05-01 13:58 30.78551 -78.64878 35998 ft 456 kts
2026-05-01 13:58 30.84681 -78.62974 35987 ft 456 kts
2026-05-01 13:59 30.90815 -78.61060 35983 ft 456 kts
2026-05-01 13:59 30.96957 -78.59144 35980 ft 457 kts
2026-05-01 14:00 31.03104 -78.57229 36007 ft 457 kts
2026-05-01 14:00 31.09215 -78.55321 36000 ft 457 kts
2026-05-01 14:01 31.15360 -78.53404 35999 ft 456 kts
2026-05-01 14:01 31.21493 -78.51490 35993 ft 457 kts
2026-05-01 14:02 31.27623 -78.49560 35991 ft 456 kts
2026-05-01 14:02 31.33761 -78.47627 36009 ft 456 kts
2026-05-01 14:03 31.39888 -78.45699 35992 ft 456 kts
2026-05-01 14:03 31.46026 -78.43768 35993 ft 456 kts
2026-05-01 14:04 31.52152 -78.41838 35991 ft 456 kts
2026-05-01 14:04 31.57247 -78.40232 35994 ft 455 kts
2026-05-01 14:05 31.64391 -78.37966 35984 ft 454 kts
2026-05-01 14:05 31.70496 -78.36039 35984 ft 454 kts
2026-05-01 14:06 31.76570 -78.34120 35984 ft 454 kts
2026-05-01 14:06 31.82677 -78.32186 36016 ft 455 kts
2026-05-01 14:07 31.88790 -78.30243 36010 ft 455 kts
2026-05-01 14:08 31.97921 -78.27336 36003 ft 454 kts
2026-05-01 14:08 32.04036 -78.25390 36002 ft 455 kts
2026-05-01 14:09 32.10138 -78.23436 35995 ft 453 kts
2026-05-01 14:09 32.16220 -78.21487 35991 ft 452 kts
2026-05-01 14:10 32.22293 -78.19545 35996 ft 453 kts
2026-05-01 14:10 32.28347 -78.17607 36000 ft 453 kts
2026-05-01 14:11 32.34434 -78.15654 36031 ft 453 kts
2026-05-01 14:11 32.43541 -78.12719 36014 ft 451 kts
2026-05-01 14:12 32.49610 -78.10771 36011 ft 451 kts
2026-05-01 14:12 32.55671 -78.08808 36008 ft 451 kts
2026-05-01 14:13 32.60707 -78.07182 36018 ft 450 kts
2026-05-01 14:13 32.67720 -78.04912 35998 ft 448 kts
2026-05-01 14:14 32.73746 -78.02970 36000 ft 448 kts
2026-05-01 14:14 32.79775 -78.01012 35997 ft 449 kts
2026-05-01 14:15 32.85795 -77.99046 36000 ft 449 kts
2026-05-01 14:15 32.91791 -77.97106 36004 ft 449 kts
2026-05-01 14:16 32.97828 -77.95148 36004 ft 450 kts
2026-05-01 14:16 33.03880 -77.93167 36007 ft 451 kts
2026-05-01 14:17 33.09927 -77.91182 36065 ft 451 kts
2026-05-01 14:17 33.15960 -77.89211 36006 ft 448 kts
2026-05-01 14:18 33.21971 -77.87243 36005 ft 448 kts
2026-05-01 14:18 33.26975 -77.85608 36006 ft 448 kts
2026-05-01 14:19 33.33983 -77.83304 36011 ft 449 kts
2026-05-01 14:19 33.40005 -77.81317 36042 ft 449 kts
2026-05-01 14:20 33.49040 -77.78345 36030 ft 449 kts
2026-05-01 14:21 33.55068 -77.76349 36023 ft 449 kts
2026-05-01 14:21 33.61061 -77.74357 36065 ft 450 kts
2026-05-01 14:22 33.70132 -77.71352 36018 ft 452 kts
2026-05-01 14:22 33.76203 -77.69339 36018 ft 453 kts
2026-05-01 14:23 33.82286 -77.67315 36023 ft 454 kts
2026-05-01 14:23 33.88376 -77.65286 36048 ft 455 kts
2026-05-01 14:24 33.94486 -77.63236 36037 ft 455 kts
2026-05-01 14:24 34.00595 -77.61194 36036 ft 456 kts
2026-05-01 14:25 34.06714 -77.59155 36020 ft 456 kts
2026-05-01 14:25 34.12831 -77.57109 36066 ft 456 kts
2026-05-01 14:26 34.22009 -77.54021 36056 ft 457 kts
2026-05-01 14:27 34.28092 -77.51971 36047 ft 457 kts
2026-05-01 14:27 34.34219 -77.49916 36058 ft 457 kts
2026-05-01 14:28 34.43415 -77.46830 36055 ft 457 kts
2026-05-01 14:28 34.49552 -77.44753 36052 ft 458 kts
2026-05-01 14:29 34.55684 -77.42674 36066 ft 458 kts
2026-05-01 14:30 34.67976 -77.38504 36088 ft 459 kts
2026-05-01 14:31 34.77215 -77.35353 36071 ft 459 kts
2026-05-01 14:31 34.83328 -77.33267 36070 ft 459 kts
2026-05-01 14:32 34.89480 -77.31171 36063 ft 458 kts
2026-05-01 14:32 34.95621 -77.29076 36071 ft 458 kts
2026-05-01 14:33 35.01765 -77.26975 36069 ft 458 kts
2026-05-01 14:33 35.07881 -77.24882 36117 ft 459 kts
2026-05-01 14:34 35.14023 -77.22767 36093 ft 459 kts
2026-05-01 14:34 35.20167 -77.20646 36089 ft 458 kts
2026-05-01 14:35 35.26312 -77.18534 36088 ft 459 kts
2026-05-01 14:35 35.31422 -77.16774 36089 ft 459 kts
2026-05-01 14:36 35.37567 -77.14652 36090 ft 459 kts
2026-05-01 14:36 35.43723 -77.12517 36096 ft 460 kts
2026-05-01 14:37 35.49885 -77.10373 36100 ft 460 kts
2026-05-01 14:37 35.56046 -77.08235 36165 ft 459 kts
2026-05-01 14:38 35.62182 -77.06104 36081 ft 457 kts
2026-05-01 14:38 35.68316 -77.03973 36080 ft 458 kts
2026-05-01 14:39 35.74460 -77.01835 36080 ft 459 kts
2026-05-01 14:39 35.80563 -76.99698 36117 ft 459 kts
2026-05-01 14:40 35.86720 -76.97541 36103 ft 460 kts
2026-05-01 14:40 35.92861 -76.94980 36084 ft 482 kts 13°
2026-05-01 14:41 35.98824 -76.91033 36076 ft 487 kts 14°
2026-05-01 14:41 36.04798 -76.87043 36089 ft 490 kts 14°
2026-05-01 14:42 36.10769 -76.83053 36060 ft 489 kts 14°
2026-05-01 14:42 36.16767 -76.79037 36064 ft 490 kts 14°
2026-05-01 14:43 36.22774 -76.75020 36066 ft 490 kts 14°
2026-05-01 14:43 36.28783 -76.70992 36108 ft 491 kts 14°
2026-05-01 14:44 36.34748 -76.66990 36093 ft 491 kts 14°
2026-05-01 14:44 36.43776 -76.60904 36078 ft 492 kts 14°
2026-05-01 14:45 36.52771 -76.54826 36074 ft 489 kts 14°
2026-05-01 14:46 36.58738 -76.50794 36088 ft 488 kts 14°
2026-05-01 14:46 36.67698 -76.44728 36064 ft 489 kts 14°
2026-05-01 14:47 36.73675 -76.40666 36117 ft 489 kts 14°
2026-05-01 14:48 36.82636 -76.34555 36102 ft 489 kts 14°
2026-05-01 14:48 36.91602 -76.28440 36114 ft 489 kts 14°
2026-05-01 14:49 37.03523 -76.20272 36115 ft 490 kts 14°
2026-05-01 14:50 37.15497 -76.12036 36115 ft 491 kts 15°
2026-05-01 14:51 37.24501 -76.05823 36091 ft 492 kts 15°
2026-05-01 14:52 37.33478 -75.99622 36077 ft 493 kts 15°
2026-05-01 14:53 37.42520 -75.93354 36073 ft 495 kts 15°
2026-05-01 14:53 37.48556 -75.89153 36067 ft 496 kts 15°
2026-05-01 14:54 37.54591 -75.84935 36073 ft 497 kts 16°
2026-05-01 14:54 37.60549 -75.80551 36074 ft 501 kts 18°
2026-05-01 14:55 37.66523 -75.75991 36068 ft 501 kts 18°
2026-05-01 14:55 37.72501 -75.71443 36080 ft 501 kts 18°
2026-05-01 14:56 37.78489 -75.66928 36126 ft 501 kts 18°
2026-05-01 14:56 37.84484 -75.62414 36101 ft 503 kts 18°
2026-05-01 14:57 37.90395 -75.57546 36092 ft 510 kts 22°
2026-05-01 14:57 37.99055 -75.49749 36132 ft 511 kts 23°
2026-05-01 14:58 38.04878 -75.44582 36058 ft 509 kts 22°
2026-05-01 14:58 38.10763 -75.39652 36042 ft 505 kts 20°
2026-05-01 14:59 38.16709 -75.34918 36051 ft 504 kts 20°
2026-05-01 14:59 38.22652 -75.30157 36091 ft 505 kts 21°
2026-05-01 15:00 38.28802 -75.26322 36081 ft 484 kts
2026-05-01 15:00 38.31941 -75.24793 36079 ft 483 kts
2026-05-01 15:01 38.38241 -75.21762 36078 ft 483 kts
2026-05-01 15:01 38.44537 -75.18728 36070 ft 483 kts
2026-05-01 15:02 38.50813 -75.15683 36052 ft 482 kts
2026-05-01 15:02 38.57091 -75.12631 36062 ft 483 kts
2026-05-01 15:03 38.63352 -75.09414 36090 ft 494 kts 17°
2026-05-01 15:03 38.66313 -75.07069 36085 ft 510 kts 27°
2026-05-01 15:03 38.69007 -75.04118 36065 ft 518 kts 33°
2026-05-01 15:04 38.74360 -74.97922 36069 ft 518 kts 33°
2026-05-01 15:04 38.79733 -74.91751 36065 ft 517 kts 31°
2026-05-01 15:05 38.85257 -74.85906 36062 ft 512 kts 28°
2026-05-01 15:05 38.90855 -74.80273 36053 ft 512 kts 28°
2026-05-01 15:06 38.96439 -74.74577 36054 ft 513 kts 29°
2026-05-01 15:06 39.01982 -74.68765 36094 ft 515 kts 30°
2026-05-01 15:07 39.07507 -74.62896 36080 ft 515 kts 30°
2026-05-01 15:07 39.13057 -74.57039 36069 ft 516 kts 30°
2026-05-01 15:08 39.18597 -74.51146 36056 ft 517 kts 30°
2026-05-01 15:08 39.24088 -74.45134 36045 ft 517 kts 31°
2026-05-01 15:09 39.29513 -74.39133 36032 ft 516 kts 31°
2026-05-01 15:09 39.34982 -74.33107 36017 ft 517 kts 31°
2026-05-01 15:10 39.40457 -74.27084 36059 ft 517 kts 32°
2026-05-01 15:10 39.48667 -74.18003 36054 ft 517 kts 32°
2026-05-01 15:11 39.56238 -74.07817 36047 ft 530 kts 43°
2026-05-01 15:12 39.60928 -74.00435 36040 ft 530 kts 43°
2026-05-01 15:12 39.67960 -73.89417 36038 ft 530 kts 43°
2026-05-01 15:14 39.79664 -73.70936 36076 ft 530 kts 44°
2026-05-01 15:14 39.86676 -73.59819 36045 ft 529 kts 44°
2026-05-01 15:15 39.96848 -73.46367 36071 ft 518 kts 35°
2026-05-01 15:16 40.07514 -73.33717 36057 ft 518 kts 35°
2026-05-01 15:18 40.20793 -73.17901 36051 ft 517 kts 36°
2026-05-01 15:19 40.31413 -73.05167 36066 ft 517 kts 37°
2026-05-01 15:19 40.39310 -72.95694 36010 ft 514 kts 37°
2026-05-01 15:20 40.47222 -72.86159 35996 ft 515 kts 37°
2026-05-01 15:21 40.52502 -72.79781 36021 ft 515 kts 37°
2026-05-01 15:21 40.57680 -72.73250 36014 ft 516 kts 40°
2026-05-01 15:22 40.65255 -72.63129 36006 ft 517 kts 40°
2026-05-01 15:22 40.69706 -72.57971 36009 ft 508 kts 28°
2026-05-01 15:23 40.76829 -72.52850 36007 ft 501 kts 21°
2026-05-01 15:23 40.83011 -72.48610 36009 ft 501 kts 21°
2026-05-01 15:24 40.88189 -72.45033 36037 ft 501 kts 22°
2026-05-01 15:24 40.94373 -72.40750 36007 ft 502 kts 22°
2026-05-01 15:25 41.00518 -72.36489 35994 ft 502 kts 22°
2026-05-01 15:25 41.06700 -72.32199 36009 ft 502 kts 22°
2026-05-01 15:26 41.09795 -72.30054 35813 ft 502 kts 22°
2026-05-01 15:26 41.12884 -72.27910 35572 ft 501 kts 22°
2026-05-01 15:26 41.15966 -72.25761 34990 ft 501 kts 22°
2026-05-01 15:26 41.19063 -72.23600 33856 ft 500 kts 22°
2026-05-01 15:27 41.22104 -72.21468 32851 ft 489 kts 22°
2026-05-01 15:27 41.25030 -72.19178 31683 ft 488 kts 30°
2026-05-01 15:27 41.27691 -72.16402 30627 ft 486 kts 38°
2026-05-01 15:28 41.32344 -72.09914 28256 ft 486 kts 43°
2026-05-01 15:28 41.34647 -72.06615 27069 ft 486 kts 43°
2026-05-01 15:28 41.36973 -72.03299 25768 ft 493 kts 43°
2026-05-01 15:29 41.41701 -71.96537 23154 ft 503 kts 44°
2026-05-01 15:29 41.44045 -71.93155 22042 ft 502 kts 44°
2026-05-01 15:29 41.48699 -71.86398 20207 ft 489 kts 44°
2026-05-01 15:30 41.53264 -71.79783 18401 ft 479 kts 44°
2026-05-01 15:31 41.61419 -71.67928 17379 ft 378 kts 44°
2026-05-01 15:31 41.64853 -71.62922 16735 ft 362 kts 44°
2026-05-01 15:32 41.67998 -71.57690 16216 ft 363 kts 58°
2026-05-01 15:32 41.69953 -71.51480 15697 ft 361 kts 68°
2026-05-01 15:33 41.72791 -71.42188 14633 ft 358 kts 58°
2026-05-01 15:34 41.76446 -71.33699 13317 ft 339 kts 58°